Salina, KS

1:31 PM CST on February 26, 2017 (GMT -0600)
Salina Municipal

Weather History for KSLN - December, 2013

Change the Weather History Date:

Wednesday, December 11, 2013

  Actual Average Record
Temperature  
Mean Temperature 18 °F 33 °F  
Max Temperature 27 °F 43 °F 75 °F (1939)
Min Temperature 9 °F 23 °F 0 °F (1963)
Degree Days  
Heating Degree Days 47 32  
Month to date heating degree days 434 337  
Since 1 July heating degree days 1422 1289  
Cooling Degree Days 0 0  
Month to date cooling degree days 0 0  
Year to date cooling degree days 1750 1647  
Moisture  
Dew Point 6 °F    
Average Humidity 55    
Maximum Humidity 77    
Minimum Humidity 32    
Precipitation  
Precipitation T in 0.03 in 1.31 in (2007)
Month to date precipitation T 0.39  
Year to date precipitation 29.41 30.95  
Sea Level Pressure  
Sea Level Pressure 30.58 in    
Wind  
Wind Speed 9 mph (North)    
Max Wind Speed 20 mph    
Max Gust Speed 25 mph    
Visibility 10 miles    
Events      
T = Trace of Precipitation, MM = Missing Value Source: NWS Daily Summary

Daily Weather History Graph

Daily Weather History Graph

Search for Another Location

Airport or City:

Trip Planner

Search our weather history database for the weather conditions in past years. The results will help you decide how hot, cold, wet, or windy it might be!

Date:

Astronomy

Dec. 11, 2013 Rise Set
Actual Time 7:38 AM CST 5:09 PM CST
Civil Twilight 7:09 AM CST 5:38 PM CST
Nautical Twilight 6:35 AM CST 6:12 PM CST
Astronomical Twilight 6:03 AM CST 6:44 PM CST
Moon 1:40 PM CST (12/11) 2:04 AM CST (12/11)
Length of Visible Light 10h 29m
Length of Day
9h 30m
Waxing Gibbous, 72% of the Moon is Illuminated
Dec 11
Waxing Gibbous
Dec 17
Full
Dec 25
Last Quarter
Jan 1
New
Jan 7
First Quarter

Hourly Weather History & Observations

Time (CST) Temp. Windchill Dew Point Humidity Pressure Visibility Wind Dir Wind Speed Gust Speed Precip Events Conditions
12:53 AM 19.0 °F 9.0 °F 12.0 °F 74% 30.28 in 10.0 mi NNW 8.1 mph - N/A   Clear
1:53 AM 19.0 °F 7.5 °F 12.0 °F 74% 30.32 in 10.0 mi NNW 10.4 mph - N/A   Clear
2:53 AM 21.0 °F 11.4 °F 15.1 °F 78% 30.36 in 10.0 mi North 8.1 mph - N/A   Clear
3:53 AM 26.1 °F 13.1 °F 19.0 °F 75% 30.42 in 10.0 mi North 17.3 mph - N/A   Clear
4:53 AM 24.1 °F 11.5 °F 17.1 °F 75% 30.46 in 9.0 mi North 15.0 mph - 0.00 in   Clear
5:53 AM 23.0 °F 10.1 °F 15.1 °F 72% 30.50 in 10.0 mi North 15.0 mph - N/A   Clear
6:53 AM 21.9 °F 8.7 °F 12.9 °F 68% 30.56 in 10.0 mi North 15.0 mph - N/A   Clear
7:53 AM 21.0 °F 9.9 °F 12.0 °F 68% 30.60 in 10.0 mi NNE 10.4 mph - N/A   Clear
8:53 AM 19.9 °F 6.7 °F 10.9 °F 68% 30.64 in 10.0 mi NNE 13.8 mph - N/A   Clear
9:53 AM 19.9 °F 6.7 °F 10.0 °F 65% 30.71 in 10.0 mi NNE 13.8 mph - N/A   Mostly Cloudy
10:53 AM 21.0 °F 8.6 °F 3.0 °F 46% 30.73 in 10.0 mi North 12.7 mph - N/A   Partly Cloudy
11:53 AM 23.0 °F 13.9 °F 3.0 °F 42% 30.72 in 10.0 mi North 8.1 mph - N/A   Clear
12:53 PM 24.1 °F 13.1 °F 1.0 °F 37% 30.69 in 10.0 mi North 11.5 mph 18.4 mph N/A   Clear
1:53 PM 26.1 °F 19.4 °F 1.0 °F 34% 30.67 in 10.0 mi North 5.8 mph - N/A   Clear
2:53 PM 26.1 °F 19.4 °F -0.9 °F 31% 30.66 in 10.0 mi North 5.8 mph - N/A   Clear
3:53 PM 25.0 °F 20.7 °F 1.0 °F 36% 30.65 in 10.0 mi North 3.5 mph - N/A   Clear
4:53 PM 24.1 °F - -0.9 °F 34% 30.65 in 10.0 mi Calm Calm - N/A   Clear
5:53 PM 21.9 °F 15.7 °F -2.0 °F 35% 30.63 in 10.0 mi East 4.6 mph - N/A   Clear
6:53 PM 17.1 °F 11.7 °F -0.9 °F 45% 30.63 in 10.0 mi ESE 3.5 mph - N/A   Clear
7:53 PM 17.1 °F 6.6 °F -0.0 °F 47% 30.63 in 10.0 mi SE 8.1 mph - N/A   Clear
8:53 PM 14.0 °F 8.2 °F -0.0 °F 54% 30.64 in 10.0 mi SSW 3.5 mph - N/A   Clear
9:53 PM 10.9 °F 0.2 °F -0.0 °F 61% 30.63 in 10.0 mi South 6.9 mph - N/A   Clear
10:53 PM 10.9 °F 1.4 °F -0.0 °F 61% 30.62 in 10.0 mi South 5.8 mph - N/A   Clear
11:53 PM 10.9 °F 0.2 °F -0.0 °F 61% 30.61 in 10.0 mi South 6.9 mph - N/A   Clear